Location: Borowce
(50.8255°N, 19.6209°E)
Time: 23:02:05
(UTC+00:00)

Cosmos 1707 - Pass Details

Date: 19 May 2025
Orbit: 422 x 430 km, 82.5° (Epoch: 16 June)

Event Time Altitude Azimuth Distance (km) Brightness Sun altitude
Exits shadow 22:54:28 25° 264° (W) 923 3.8 -19.1°
Maximum altitude 22:55:14 28° 288° (WNW) 862 3.9 -19.1°
Drops below altitude 10° 22:58:11 10° 349° (N) 1,551 6.2 -19.1°
Sets 23:00:27 0° 2° (N) 2,427 7.8 -19.0°
